This is the latest recevied weather packets stored in our database for station/object SP9INZ-13. If no packets are shown the sender has not sent any weather packets the latest 10 day(s).
| Time | Temp. | Humidity | Pressure | Rain* | Wind** | Luminosity | Snow |
|---|---|---|---|---|---|---|---|
| 1777980133 | 26.11° C | 21% | 1010.8 hPa | - | - | - | - |
| 1777980080 | 26.11° C | 21% | 1010.8 hPa | - | - | - | - |
| 1777979121 | 27.78° C | 19% | 1010.1 hPa | - | - | - | - |
| 1777978162 | 26.67° C | 22% | 1010.4 hPa | - | - | - | - |
| 1777977205 | 26.67° C | 22% | 1010.5 hPa | - | - | - | - |
| 1777976495 | 26.67° C | 26% | 1009.8 hPa | - | - | - | - |
| 1777976248 | 26.67° C | 26% | 1009.8 hPa | - | - | - | - |
| 1777975290 | 26.11° C | 27% | 1010.3 hPa | - | - | - | - |
| 1777974332 | 26.11° C | 28% | 1010.4 hPa | - | - | - | - |
| 1777973535 | 25° C | 29% | 1010.9 hPa | - | - | - | - |
| 1777973374 | 25° C | 29% | 1010.9 hPa | - | - | - | - |
| 1777972418 | 25° C | 30% | 1010.9 hPa | - | - | - | - |
| 1777971458 | 23.89° C | 31% | 1011.5 hPa | - | - | - | - |
| 1777970500 | 24.44° C | 31% | 1011.7 hPa | - | - | - | - |
| 1777969544 | 23.33° C | 31% | 1012.1 hPa | - | - | - | - |
| 1777968584 | 23.33° C | 31% | 1012 hPa | - | - | - | - |
| 1777967626 | 23.33° C | 32% | 1012.3 hPa | - | - | - | - |
| 1777966667 | 22.22° C | 33% | 1013 hPa | - | - | - | - |
| 1777965709 | 22.78° C | 33% | 1012.7 hPa | - | - | - | - |
| 1777964752 | 21.67° C | 35% | 1013.3 hPa | - | - | - | - |
| 1777963793 | 21.67° C | 36% | 1013.3 hPa | - | - | - | - |
| 1777962842 | 20.56° C | 37% | 1013.7 hPa | - | - | - | - |
| 1777962835 | 20.56° C | 37% | 1013.7 hPa | - | - | - | - |
| 1777961877 | 20° C | 41% | 1013.8 hPa | - | - | - | - |
| 1777960920 | 18.89° C | 42% | 1014.2 hPa | - | - | - | - |
* Rain since midnight (hover to see other rain measurements)
** Current wind speed in m/s (hover to see current wind gust speed)